Location: Courçay
(47.2523°N, 0.8761°E)
Time: 20:50:02
(UTC+00:00)

BREEZE-M DEB (TANK) - Pass Details

Date: 18 November 2025
Orbit: 274 x 13340 km, 49.5° (Epoch: 10 December)

Event Time Altitude Azimuth Distance (km) Brightness Sun altitude
Rises 18:59:02 0° 264° (W) 2,344 7.3 -27.1°
Reaches altitude 10° 19:00:21 10° 266° (W) 1,731 6.3 -27.3°
Maximum altitude 19:03:46 76° 353° (N) 897 3.7 -27.9°
Enters shadow 19:04:02 74° 24° (NNE) 938 3.7 -28.0°
